Location: Cicognara
(44.9500°N, 10.4667°E)
Time: 15:30:22
(UTC+00:00)

SL-4 R/B - Pass Details

Date: 20 June 2021
Orbit: 428 x 662 km, 51.6° (Epoch: 02 August)

Event Time Altitude Azimuth Distance (km) Brightness Sun altitude
Rises 20:14:43 0° 198° (SSW) 2,811 5.3 -9.7°
Reaches altitude 10° 20:17:31 10° 181° (S) 1,867 4.3 -10.0°
Maximum altitude 20:20:36 20° 135° (SE) 1,315 3.3 -10.3°
Drops below altitude 10° 20:23:31 10° 88° (E) 1,767 4.2 -10.7°
Sets 20:26:05 0° 70° (ENE) 2,610 5.3 -11.0°
